GFSMA_850_rhum_105.txt.gz
RH
90 88 89 92 98 97 92 83 84 88 95 95 94 88 87 77 75 71 75 83 89 84 87 88 90 80 84 88 100 99 65 49 48 52 30 26 18 14 13 14 13 14 15
87 90 86 84 86 85 83 80 86 88 88 89 98 89 85 75 74 81 73 84 90 88 82 87 86 86 87 97 100 89 37 22 18 22 22 20 15 14 14 14 14 15 17
91 92 81 92 90 87 83 91 94 86 91 99 94 88 84 72 73 81 76 95 92 91 85 82 84 85 90 98 100 69 26 25 29 23 18 16 15 15 15 15 16 18 24
87 89 91 89 90 91 94 95 98 94 97 95 95 88 81 74 69 77 72 96 93 98 90 82 85 84 85 98 99 69 31 20 26 22 16 16 15 16 16 17 19 25 33
85 90 92 93 97 95 88 94 98 95 99 95 100 88 75 72 72 68 85 76 90 95 91 86 85 84 92 93 98 60 47 26 21 20 18 17 17 18 19 22 27 33 39
86 91 95 90 86 92 87 97 96 100 97 94 98 87 72 73 68 71 72 84 84 90 93 87 87 87 88 94 95 70 39 33 24 22 22 21 22 22 25 30 35 40 44
97 91 98 86 78 74 78 99 99 100 100 99 100 90 82 80 74 79 80 70 79 90 90 87 92 97 89 93 97 91 72 86 30 27 27 27 28 29 33 37 41 45 48
92 95 99 86 70 65 81 99 100 100 100 100 98 89 100 96 86 93 91 82 78 87 87 92 91 98 97 79 76 81 59 99 90 45 34 35 37 39 41 43 45 49 51
91 95 95 91 71 66 84 99 100 100 98 99 92 89 99 98 98 94 91 84 79 79 81 83 94 86 83 86 85 59 52 80 96 91 50 44 46 48 49 51 51 52 54
92 88 91 94 78 72 83 98 97 100 100 92 97 90 81 80 89 97 99 94 83 81 74 76 77 83 81 84 90 82 42 42 57 79 98 68 58 61 62 59 60 61 63
98 98 90 95 90 72 79 97 96 98 100 90 92 76 80 75 73 73 84 98 97 85 82 76 75 78 85 89 86 90 76 54 49 50 55 70 88 80 75 79 82 83 85
99 98 89 94 98 97 83 89 98 90 91 95 83 78 83 81 87 71 70 88 95 96 89 83 77 80 82 85 85 86 71 43 43 44 48 52 56 66 72 76 77 79 79
99 99 93 92 92 96 94 97 100 100 99 98 90 88 89 87 83 70 71 80 91 90 92 87 82 81 84 84 85 57 44 41 46 50 58 63 65 70 76 78 81 82 83
100 98 95 99 96 100 100 99 98 95 100 98 99 85 83 80 77 81 79 69 76 87 88 84 86 88 86 60 49 54 51 56 59 61 64 66 71 75 74 69 76 84 83
97 100 96 98 98 99 99 93 100 99 100 100 92 95 99 96 88 84 84 78 66 86 80 78 84 70 53 54 60 58 57 56 54 54 54 55 60 73 74 65 72 76 76
100 96 85 91 98 99 98 100 100 99 100 100 99 99 100 100 99 99 94 92 89 78 81 69 69 67 61 62 60 59 60 58 58 59 61 60 66 70 74 80 76 76 79
100 98 86 97 97 94 100 100 100 99 100 99 100 100 100 100 100 100 100 99 94 94 89 79 75 68 74 71 71 70 65 65 64 63 59 57 60 67 65 67 67 71 72
99 99 88 92 97 96 97 100 98 98 99 100 99 97 100 100 100 100 100 100 99 99 93 85 79 65 61 69 72 74 86 83 73 74 69 63 60 59 60 64 68 60 64
100 100 97 99 98 98 95 99 100 99 99 100 100 96 99 100 99 100 99 99 100 99 86 99 91 90 88 81 80 70 65 83 82 89 78 68 62 57 56 58 57 64 64
100 100 100 100 90 94 97 96 97 98 99 95 91 92 98 98 98 97 96 96 96 98 98 96 87 90 89 85 86 85 79 79 79 84 90 86 80 78 73 70 75 78 82
98 100 97 99 99 99 96 100 99 97 99 100 98 100 99 99 100 100 100 98 99 97 89 80 81 85 84 77 87 75 85 75 77 83 87 85 87 91 99 98 96 96 95
99 98 97 99 98 99 100 100 100 100 100 100 100 100 100 96 88 82 82 87 96 99 100 100 100 100 94 99 89 95 98 95 92 90 94 99 99 99 99 98 98 88 88
99 98 100 99 100 100 99 95 99 98 99 98 95 94 94 97 91 91 89 89 91 97 100 100 100 100 100 100 99 99 100 100 100 100 96 94 99 99 100 100 100 100 100
99 90 99 99 99 97 98 99 100 99 99 100 100 100 100 100 100 100 100 100 100 100 99 100 100 100 98 95 96 93 90 92 95 96 98 100 100 100 100 100 99 100 99
100 100 100 100 100 99 99 99 100 100 100 100 99 99 100 100 99 100 100 100 100 100 100 100 100 100 99 99 99 100 100 100 99 100 100 100 99 100 100 100 100 100 99
100 100 100 100 100 100 99 100 100 100 100 99 100 100 99 100 99 99 100 100 100 100 100 99 100 100 100 99 99 100 100 99 99 100 99 100 100 100 99 99 98 97 96

GFSMA_850_rhum_108.txt.gz
RH
85 86 91 92 92 90 87 85 84 79 76 82 86 87 88 89 90 86 74 72 74 78 87 70 89 85 93 92 75 86 98 98 40 17 13 12 11 11 13 14 13 14 16
87 90 89 88 90 88 90 85 86 79 81 86 95 82 85 97 88 85 74 73 71 81 85 72 84 84 89 86 89 91 98 92 26 13 14 13 12 13 14 15 15 16 17
83 91 92 90 87 85 88 92 94 84 87 92 98 89 90 91 88 83 71 69 80 89 84 72 84 85 85 84 83 89 89 73 23 15 14 13 13 14 15 16 16 17 21
76 86 96 92 82 90 89 86 88 87 93 90 83 84 94 94 85 80 67 71 76 88 85 83 84 83 82 84 74 51 83 56 22 18 15 14 14 15 16 17 18 20 27
76 72 90 94 95 98 93 94 91 92 96 87 91 87 98 98 83 74 68 72 77 84 84 84 87 83 83 86 83 54 53 53 34 20 16 16 16 16 17 19 21 26 34
84 82 86 96 99 100 99 92 90 90 90 96 92 95 100 84 74 71 72 77 79 86 84 80 86 87 86 86 87 60 97 78 33 30 24 18 18 19 20 22 26 31 38
77 83 86 100 100 94 93 89 96 97 100 98 100 98 100 89 66 66 78 80 79 76 83 81 81 83 88 85 84 90 72 99 96 55 29 28 22 23 24 27 32 37 42
82 83 86 100 96 89 84 79 80 99 100 100 100 98 100 93 79 66 85 93 77 70 81 90 84 84 84 84 74 79 59 97 99 98 54 49 27 27 30 34 37 41 45
85 79 84 99 92 86 72 67 81 100 100 100 97 96 94 89 84 75 69 71 89 75 73 73 89 92 83 85 74 62 57 51 93 92 62 48 37 36 37 41 43 45 48
61 82 90 98 87 84 68 67 90 99 99 94 100 99 86 71 82 95 88 75 90 94 84 76 76 78 86 85 81 82 68 33 33 50 64 66 46 45 48 50 52 53 54
59 91 99 95 85 86 72 68 92 100 97 100 100 92 79 80 79 78 88 86 77 85 89 84 80 74 73 79 84 86 80 76 41 42 53 69 86 62 62 64 66 68 70
76 97 94 96 87 86 83 68 92 93 97 100 93 90 86 79 73 66 74 67 68 71 74 80 81 83 81 78 74 72 79 78 66 49 44 45 46 60 60 70 73 74 75
70 97 98 99 93 90 80 73 80 90 89 99 99 89 88 82 78 75 77 75 76 80 82 76 76 71 77 82 81 77 72 79 62 46 41 40 41 44 48 54 62 68 71
43 71 91 97 99 94 95 91 84 91 93 99 96 93 88 83 86 84 72 78 92 95 88 80 81 86 79 75 85 86 81 63 49 44 47 53 55 60 62 65 70 74 75
70 71 98 97 96 96 95 96 93 95 93 97 100 95 92 88 91 88 80 77 76 88 88 69 73 84 86 77 62 62 62 50 50 52 57 60 61 58 61 71 75 72 72
84 73 89 94 93 98 98 99 98 96 97 92 100 99 100 96 89 88 92 90 83 71 74 69 69 68 79 75 68 61 62 60 61 57 57 57 58 60 61 62 59 66 69
82 71 98 97 93 99 100 100 99 96 100 99 100 100 99 94 93 99 100 98 95 94 92 85 77 79 76 73 80 79 76 69 66 61 61 61 62 61 59 62 62 66 67
73 76 98 100 100 100 100 97 96 99 99 99 100 100 100 100 100 99 97 100 100 99 100 97 86 84 76 71 69 70 73 75 78 76 69 64 67 66 68 65 65 66 70
93 97 98 100 99 96 98 99 95 99 99 99 99 100 100 100 100 100 99 100 100 100 100 100 96 88 81 71 70 75 78 75 74 72 72 73 70 69 75 75 75 74 75
98 98 98 98 98 99 99 97 100 100 100 100 100 99 100 98 99 100 100 99 100 100 100 100 100 97 87 78 84 90 87 83 80 78 77 75 74 83 93 96 95 90 88
99 98 99 99 97 97 98 98 97 96 99 98 97 98 100 100 100 97 96 98 98 94 93 93 99 100 99 94 91 80 90 84 88 91 88 90 95 100 99 99 100 97 96
98 99 99 99 100 99 97 99 98 100 99 98 96 98 98 96 100 99 99 100 98 100 100 100 94 95 94 90 92 94 98 100 100 97 99 99 100 100 100 100 100 100 96
100 99 99 100 100 100 100 98 99 100 99 100 100 100 99 100 100 100 100 100 100 100 100 100 100 100 100 98 98 99 100 100 100 98 100 99 100 99 99 98 96 90 96
100 100 100 99 99 97 96 94 95 97 98 99 100 100 100 100 100 100 100 100 100 100 100 100 100 100 100 100 100 100 100 98 100 100 99 100 100 100 99 100 98 99 100
100 100 100 100 100 100 94 98 100 99 98 99 94 94 100 99 98 100 100 100 100 100 99 100 100 100 100 99 100 100 99 100 100 99 99 100 99 100 100 100 100 100 100
100 100 100 100 100 99 100 100 100 100 100 100 100 100 100 100 99 99 100 100 100 100 100 100 100 100 99 100 99 99 100 98 98 99 98 100 100 100 99 99 99 94 89

GFSMA_850_rhum_114.txt.gz
RH
61 70 73 77 79 81 83 82 82 78 75 74 75 76 80 77 75 80 84 86 89 82 78 77 69 46 68 78 84 95 96 97 65 30 28 46 40 14 10 12 14 15 17
59 70 75 77 82 83 82 81 86 84 83 81 78 73 82 85 82 85 86 93 86 86 77 77 66 43 62 74 97 97 96 96 58 30 24 22 39 17 13 14 14 16 18
50 67 74 78 84 88 86 86 88 93 94 88 86 79 81 84 84 92 90 97 93 88 83 76 70 51 52 81 92 97 98 98 50 22 18 15 24 20 16 16 16 16 19
49 67 78 81 87 91 90 90 86 87 90 91 90 89 86 88 97 98 94 96 94 82 78 76 72 50 80 86 94 96 99 98 50 23 23 17 18 19 17 17 16 17 19
40 57 73 78 89 92 94 94 90 88 90 92 95 97 88 97 100 97 97 100 92 78 72 80 69 80 83 87 95 94 93 98 68 37 31 20 17 18 18 18 18 18 19
45 48 71 81 86 99 100 97 98 99 97 97 98 94 92 99 99 94 99 97 88 80 79 82 80 76 84 84 88 86 93 96 54 56 30 19 18 18 17 18 19 19 20
52 47 65 73 85 100 98 99 98 94 96 99 99 98 99 93 98 96 93 99 90 80 89 85 72 81 86 85 83 84 84 94 86 73 59 28 17 18 18 18 19 20 23
58 47 51 56 70 92 99 91 94 95 97 96 99 100 99 100 100 100 99 96 81 80 90 85 75 85 87 87 86 88 89 100 99 100 97 45 23 19 19 19 20 22 26
71 53 54 59 62 81 91 94 93 98 94 97 99 98 100 98 99 100 99 91 80 78 82 84 82 83 83 86 84 84 88 96 96 98 86 80 36 24 22 22 23 26 30
74 64 56 66 67 80 94 95 93 99 100 98 100 100 98 92 98 99 100 93 84 78 76 74 79 74 76 80 81 82 79 77 77 86 98 92 49 37 29 28 28 31 35
81 73 61 76 80 79 90 96 100 100 100 99 99 97 99 98 95 94 99 99 97 83 77 73 76 78 79 80 79 78 80 76 75 76 74 86 69 54 42 37 35 38 42
87 83 79 73 88 81 87 93 94 95 93 87 98 98 98 100 96 93 98 98 96 96 89 81 77 79 81 76 76 71 70 82 80 79 62 52 52 56 56 46 43 46 50
92 86 84 74 97 90 93 88 92 90 78 92 98 100 100 98 90 88 93 98 95 91 84 68 77 79 81 73 75 72 69 75 77 78 78 75 64 48 49 58 61 64 64
78 80 74 68 98 99 96 95 95 86 76 98 99 100 99 98 92 83 82 85 97 93 92 93 81 81 88 73 73 78 77 77 81 81 82 75 72 75 67 53 49 46 47
83 77 80 79 93 100 100 100 100 94 88 98 100 97 98 100 97 95 91 85 82 94 88 83 85 77 79 78 73 79 85 84 84 85 79 78 77 78 74 64 58 57 58
82 83 82 82 87 97 98 99 100 100 89 96 96 99 99 100 100 97 92 88 92 88 82 68 62 63 70 81 86 89 87 85 77 84 82 79 78 79 76 68 65 69 71
77 82 83 82 84 92 100 99 98 98 93 94 95 100 100 99 98 98 100 95 93 91 90 83 78 82 81 84 86 86 96 95 89 74 80 76 78 77 73 75 78 79 78
78 78 85 74 75 95 93 98 98 100 98 99 99 100 99 100 100 100 100 100 94 96 98 94 93 85 87 85 86 90 88 85 86 77 82 77 78 81 78 83 75 68 69
90 87 85 86 85 90 94 97 88 86 92 99 100 100 100 100 100 100 100 100 98 100 97 100 96 93 92 92 94 99 95 89 82 85 87 85 79 81 84 86 86 85 84
94 89 88 88 92 94 95 91 93 95 97 100 98 99 100 100 100 100 100 100 100 100 100 100 100 100 100 100 100 100 100 92 87 84 81 81 82 92 91 88 86 89 92
95 92 93 93 92 93 96 97 95 94 97 100 98 99 100 99 98 99 99 98 100 100 100 100 100 100 99 99 98 98 99 99 96 90 95 97 98 92 95 91 95 98 95
99 96 95 90 91 94 95 94 100 99 98 100 99 100 100 100 100 100 100 100 99 99 99 100 99 99 87 84 89 90 92 97 100 95 100 97 97 97 100 100 99 100 99
100 99 98 98 100 98 99 94 92 99 99 100 100 99 99 96 98 97 98 98 95 97 96 100 97 86 82 85 88 92 96 100 100 98 96 97 100 100 100 100 100 100 99
100 100 100 100 100 100 98 92 89 95 99 98 97 93 98 92 94 96 94 95 88 87 87 98 97 98 97 97 91 86 87 97 100 100 100 100 100 100 100 100 100 100 100
100 100 100 100 100 100 100 100 94 97 98 100 97 89 94 97 99 98 95 99 93 93 95 99 99 100 100 99 100 100 100 100 100 100 100 100 100 100 100 100 100 99 98
100 98 100 100 100 100 100 100 100 100 100 100 100 100 100 100 100 100 100 100 100 100 100 99 100 100 100 100 100 100 100 100 100 100 100 100 100 100 100 100 100 99 97

GFSMA_850_rhum_117.txt.gz
RH
43 54 62 68 76 81 80 75 71 72 71 73 72 74 75 77 72 74 76 80 86 85 76 82 76 82 58 71 94 94 98 99 94 80 53 30 29 28 33 19 16 17 18
39 49 61 68 75 81 83 83 79 78 80 79 77 76 77 80 80 75 78 84 88 87 90 83 88 86 58 64 88 95 96 98 99 89 50 45 36 23 18 17 16 17 18
37 45 58 67 74 80 84 86 89 90 92 88 85 83 81 78 79 81 83 89 90 92 95 92 92 92 72 63 79 92 96 99 78 81 69 50 42 16 15 17 17 17 19
38 44 58 61 74 81 85 85 87 91 93 93 94 90 86 82 82 84 86 90 96 95 94 93 88 89 88 72 89 95 98 99 95 100 87 66 53 19 15 17 18 18 19
44 42 50 60 74 85 90 93 92 91 92 92 92 93 92 91 87 86 91 94 98 100 93 91 90 89 89 75 88 94 95 99 100 98 82 67 55 28 17 18 18 18 18
44 44 44 60 79 91 99 99 97 97 94 91 95 94 98 98 94 90 98 99 99 100 92 92 90 87 87 87 90 88 88 99 91 99 99 79 54 48 23 19 18 18 19
51 48 46 58 80 91 99 95 98 99 99 94 90 99 98 100 100 100 99 100 98 99 94 90 89 82 86 88 90 92 92 88 98 99 99 99 76 28 24 21 19 19 19
57 53 52 51 70 94 98 98 94 90 88 93 93 100 100 94 94 99 99 100 96 97 100 91 90 85 80 84 88 89 88 85 97 98 99 100 60 30 36 20 21 20 20
69 60 57 51 59 79 100 97 99 87 87 89 93 95 99 98 100 99 99 100 91 97 99 92 92 83 81 86 87 90 86 87 94 99 100 99 93 39 30 23 22 22 22
68 69 64 58 58 71 88 96 100 99 86 86 97 97 98 91 98 98 99 99 100 98 93 91 93 84 85 85 84 86 84 85 90 96 99 99 99 80 59 40 27 26 25
67 75 72 66 54 64 82 92 91 93 96 91 92 94 91 97 100 96 98 98 100 92 92 86 88 86 85 83 83 85 82 83 82 80 80 91 98 98 81 64 49 37 32
66 79 82 76 61 58 67 82 94 97 96 96 97 94 96 96 95 100 100 92 97 92 91 83 82 79 76 74 77 79 79 77 81 81 79 75 77 86 85 81 61 56 43
57 64 78 86 78 67 71 83 100 99 100 99 98 99 99 90 94 99 100 100 100 93 94 90 86 84 81 80 82 83 82 79 77 82 83 77 73 63 60 56 60 72 63
48 57 73 92 88 87 85 99 99 100 100 99 100 95 86 92 97 99 99 96 100 100 96 94 88 72 72 78 79 71 75 78 76 80 84 82 84 82 81 74 60 56 60
50 56 70 87 93 99 99 99 98 98 100 99 97 92 99 96 100 100 100 93 88 97 100 92 86 80 58 76 78 78 77 80 79 77 83 84 85 83 79 83 81 76 68
57 59 65 87 93 98 100 99 98 97 99 100 99 98 100 100 95 100 100 100 92 87 86 82 81 71 62 79 73 81 81 88 79 80 84 86 87 87 85 84 84 81 78
61 61 60 72 81 90 99 99 98 93 95 99 99 98 99 99 100 100 100 100 99 91 86 88 88 80 77 67 64 76 74 76 82 92 86 80 93 89 85 87 89 89 86
64 64 64 68 80 88 94 99 96 90 92 99 99 99 100 94 99 100 100 100 96 94 91 88 83 82 79 72 77 80 85 90 88 90 99 81 74 93 91 90 87 91 89
66 69 70 76 83 87 92 98 89 88 91 93 92 90 98 99 100 100 99 99 99 100 96 94 87 87 95 92 91 87 90 93 90 100 100 99 76 93 89 83 83 83 84
75 69 72 74 99 88 81 89 84 88 94 92 90 91 96 100 100 100 96 100 100 100 100 100 100 99 96 97 98 98 98 92 99 99 97 100 88 86 87 82 82 88 86
82 76 77 81 97 91 88 90 90 88 90 95 98 100 100 100 100 94 98 100 100 100 100 100 100 100 100 99 99 98 100 100 100 98 97 95 91 88 86 85 86 94 93
100 98 89 97 100 93 92 95 90 90 90 97 100 100 100 94 94 100 100 96 94 100 99 100 100 100 99 99 100 99 100 100 100 100 100 100 95 99 99 99 95 92 95
100 99 100 100 100 100 95 94 88 94 96 98 99 99 93 98 100 100 99 100 100 100 99 98 98 99 99 95 93 94 93 97 100 100 100 100 100 100 100 100 100 100 100
100 100 100 100 100 100 97 94 95 100 94 95 92 88 100 99 100 99 99 100 100 99 95 95 99 99 99 96 90 91 92 97 100 100 100 100 100 100 100 100 100 100 100
93 98 99 98 100 100 100 100 100 100 100 95 96 100 100 97 93 96 94 92 90 92 95 86 82 82 89 91 98 100 100 100 100 100 100 100 100 100 100 100 100 100 100
100 99 98 98 98 100 100 100 100 100 100 100 100 94 98 98 94 93 95 100 98 98 97 96 100 100 100 100 100 100 100 100 100 100 100 100 100 100 100 99 99 98 99

GFSMA_850_rhum_123.txt.gz
RH
46 52 61 66 72 76 77 74 73 69 66 64 63 66 68 70 70 70 72 82 81 81 85 94 97 87 75 74 90 88 93 96 100 99 99 99 100 81 30 15 17 18 19
38 43 51 58 68 76 78 80 76 75 74 71 70 70 72 71 73 73 73 74 78 80 85 92 99 88 85 74 88 94 98 97 99 99 99 98 99 90 45 23 19 20 20
36 39 44 51 57 70 78 81 83 83 81 79 78 77 77 79 77 76 76 76 76 79 83 89 94 91 92 79 83 94 93 96 98 98 99 100 100 97 43 20 20 20 21
30 35 41 46 52 62 72 80 85 88 87 85 82 83 84 85 83 82 81 80 79 82 83 86 90 97 100 92 76 76 91 96 98 98 98 98 100 100 57 33 20 20 20
32 34 39 46 55 59 67 79 87 90 92 91 90 89 92 93 91 89 87 83 81 84 86 90 93 99 97 89 88 73 89 93 95 98 98 98 99 99 64 28 19 18 19
36 40 42 43 55 59 64 76 85 90 93 95 97 96 99 99 98 96 91 86 85 87 87 88 93 100 100 90 92 82 85 93 96 97 96 98 98 99 74 29 17 18 19
37 43 42 44 49 57 58 69 81 89 97 97 97 96 95 90 99 97 85 89 88 92 91 91 93 98 100 93 97 90 82 86 90 94 93 97 97 98 87 44 20 19 20
34 40 39 40 44 49 59 67 78 90 98 84 94 87 99 91 83 77 81 77 75 79 83 84 87 97 97 95 94 89 76 85 85 94 92 96 98 99 100 66 31 20 20
45 44 41 48 44 49 50 56 69 92 97 82 88 89 98 96 81 74 69 70 72 71 72 81 85 93 95 97 91 83 79 92 88 85 94 96 96 97 99 99 80 26 22
60 54 46 60 62 58 59 55 62 97 92 88 88 83 87 88 94 90 75 72 73 75 74 80 94 92 85 100 92 78 82 88 92 85 90 92 96 95 99 99 99 52 22
63 66 60 68 72 70 69 66 67 90 97 92 88 91 91 95 100 98 91 95 86 80 74 80 94 99 99 98 88 78 77 82 91 88 89 89 91 94 97 99 88 92 37
66 72 59 58 68 71 72 71 75 76 84 95 95 92 91 99 98 98 98 99 98 89 82 80 92 97 100 96 88 78 72 79 85 83 81 86 88 91 93 98 99 95 89
68 65 62 57 55 57 58 71 82 80 73 87 97 92 90 91 100 88 87 96 98 95 85 79 86 97 100 100 90 81 74 83 78 85 87 87 83 87 92 92 94 95 93
58 62 58 61 52 41 47 50 70 91 81 77 85 90 95 86 90 89 86 96 100 98 98 97 94 85 96 100 84 79 79 84 85 88 91 88 88 83 82 85 89 92 91
88 68 57 59 60 53 48 42 62 88 89 78 85 85 89 86 83 87 91 97 99 100 98 98 99 92 97 99 86 85 85 87 90 91 89 90 89 87 87 84 81 82 81
99 76 65 73 68 57 45 59 71 82 93 88 87 86 91 94 94 96 99 99 98 98 100 98 98 97 98 92 95 93 83 83 86 85 89 90 85 86 91 91 92 92 92
100 98 95 84 72 61 54 59 63 69 84 94 91 91 96 96 96 96 99 95 99 100 99 100 100 98 100 93 90 84 85 79 61 85 85 84 84 83 90 91 94 90 93
99 99 100 100 90 63 59 64 65 71 80 91 94 95 100 100 79 94 99 93 97 93 97 100 99 100 94 88 92 91 90 90 83 84 86 85 83 84 86 88 90 90 90
99 100 99 99 93 82 75 70 70 68 68 84 92 98 100 90 80 91 96 97 98 97 97 100 100 100 98 97 99 98 100 78 70 80 84 92 93 93 92 90 89 92 91
100 100 100 100 99 100 100 100 89 79 71 76 96 98 100 84 82 87 99 100 100 99 99 100 100 100 100 99 98 98 90 84 87 86 81 86 86 92 89 92 96 100 98
100 100 100 100 100 100 99 98 99 100 100 92 100 100 97 85 82 85 87 89 94 99 100 99 100 100 99 97 96 90 91 84 87 87 86 93 97 96 96 98 99 97 96
100 100 100 99 100 100 100 99 98 100 100 100 100 100 90 81 81 86 83 86 91 94 100 96 99 100 99 95 96 96 98 100 100 90 94 99 100 100 100 100 100 100 99
99 97 100 100 100 100 99 100 93 100 100 100 100 100 84 81 84 86 87 98 98 98 100 99 96 95 100 94 97 97 100 100 99 93 88 100 100 100 100 100 100 100 100
98 98 99 100 99 98 96 96 99 100 100 99 100 100 99 91 95 97 96 100 97 100 98 100 100 99 95 98 100 94 99 100 100 100 100 100 100 100 100 100 100 100 100
99 99 99 97 98 98 99 96 99 100 99 100 100 100 100 100 99 100 99 100 97 98 100 100 94 99 100 99 100 100 98 99 100 99 100 100 100 100 100 100 100 100 100
96 95 96 95 95 95 98 100 100 99 100 97 100 100 100 100 99 100 95 100 96 99 100 99 100 100 100 100 100 100 100 100 100 100 100 100 100 100 100 100 100 100 100